Weather History for Brandon, MB

Change the Weather History Date:

Sunday, August 18, 2013

  Actual Average Record
Temperature  
Mean Temperature 73 °F -  
Max Temperature 86 °F 74 °F 89 °F (2003)
Min Temperature 59 °F 50 °F 37 °F (2002)
Cooling Degree Days 8    
Growing Degree Days 23 (Base 50)    
Moisture  
Dew Point 65 °F    
Average Humidity 81    
Maximum Humidity 100    
Minimum Humidity 46    
Precipitation  
Precipitation 0.00 in - - ()
Sea Level Pressure  
Sea Level Pressure 29.86 in    
Wind  
Wind Speed 5 mph ()    
Max Wind Speed 18 mph    
Max Gust Speed 28 mph    
Visibility 12.8 miles    
Events Rain , Thunderstorm    
Averages and records for this station are not official NWS values.
T = Trace of Precipitation, MM = Missing Value Source: Averaged Metar Reports

Daily Weather History Graph

Daily Weather History Graph

Search for Another Location

Airport:

Trip Planner

Search our weather history database for the weather conditions in past years. The results will help you decide how hot, cold, wet, or windy it might be!

Date:

Astronomy

Aug. 18, 2013 Rise Set
Actual Time 6:34 AM CDT 8:51 PM CDT
Civil Twilight 5:59 AM CDT 9:26 PM CDT
Nautical Twilight 5:14 AM CDT 10:10 PM CDT
Astronomical Twilight 4:23 AM CDT 11:01 PM CDT
Moon 7:04 PM CDT (8/18) 3:37 AM CDT (8/18)
Length of Visible Light 15h 27m
Length of Day
14h 16m
Waxing Gibbous, 92% of the Moon is Illuminated
Aug 18
Waxing Gibbous
Aug 20
Full
Aug 28
Last Quarter
Sep 5
New
Sep 12
First Quarter

Hourly Weather History & Observations

Time (CDT) Temp. Heat Index Dew Point Humidity Pressure Visibility Wind Dir Wind Speed Gust Speed Precip Events Conditions
12:00 AM 69.8 °F - 68.0 °F 94% 29.85 in 15.0 mi Calm Calm - N/A Thunderstorm Thunderstorm
12:28 AM 68.0 °F - 66.2 °F 94% 29.85 in 15.0 mi NNE 3.5 mph - N/A   Mostly Cloudy
1:00 AM 67 °F - 67 °F 98% 29.86 in 15 mi NE 2.3 mph - - Thunderstorm Light Thunderstorm
1:00 AM 68.0 °F - 66.2 °F 94% 29.85 in 15.0 mi NNE 2.3 mph - N/A   Scattered Clouds
2:00 AM 68.0 °F - 66.2 °F 94% 29.83 in 15.0 mi ESE 4.6 mph - N/A   Mostly Cloudy
3:00 AM 64.4 °F - 62.6 °F 94% 29.83 in 15.0 mi NE 4.6 mph - N/A   Mostly Cloudy
4:00 AM 64.4 °F - 64.4 °F 100% 29.82 in 15.0 mi ENE 8.1 mph - N/A   Scattered Clouds
5:00 AM 64.4 °F - 62.6 °F 94% 29.83 in 15.0 mi ENE 3.5 mph - N/A   Partly Cloudy
6:00 AM 62.6 °F - 60.8 °F 94% 29.82 in 10.0 mi NE 5.8 mph - N/A   Scattered Clouds
7:00 AM 62 °F - 61 °F 97% 29.83 in 10 mi ENE 4.6 mph - -   Scattered Clouds
7:00 AM 62.6 °F - 60.8 °F 94% 29.83 in 10.0 mi ENE 4.6 mph - N/A   Scattered Clouds
7:45 AM 62.6 °F - 62.6 °F 100% 29.85 in 10.0 mi NW 8.1 mph - N/A   Mostly Cloudy
8:00 AM 66.2 °F - 64.4 °F 94% 29.85 in 10.0 mi NNW 8.1 mph - N/A   Mostly Cloudy
9:00 AM 69.8 °F - 68.0 °F 94% 29.83 in 15.0 mi North 4.6 mph - N/A   Mostly Cloudy
10:00 AM 77.0 °F - 68.0 °F 74% 29.83 in 15.0 mi North 6.9 mph - N/A   Mostly Cloudy
11:00 AM 80.6 °F 83.9 °F 69.8 °F 70% 29.83 in 15.0 mi North 4.6 mph - N/A   Scattered Clouds
12:00 PM 82.4 °F 86.3 °F 69.8 °F 66% 29.85 in 15.0 mi ENE 8.1 mph - N/A   Mostly Cloudy
1:00 PM 85 °F - 67 °F 46% 29.86 in 15 mi NE 4.6 mph - -   Mostly Cloudy
1:00 PM 86.0 °F 89.4 °F 68.0 °F 55% 29.86 in 15.0 mi NE 4.6 mph - N/A   Mostly Cloudy
2:00 PM 84.2 °F 88.4 °F 69.8 °F 62% 29.87 in 15.0 mi ENE 12.7 mph - N/A   Overcast
3:00 PM 84.2 °F 87.3 °F 68.0 °F 58% 29.86 in 15.0 mi ENE 6.9 mph - N/A   Overcast
3:28 PM 82.4 °F 84.6 °F 66.2 °F 58% 29.86 in 15.0 mi Variable 2.3 mph - N/A Thunderstorm Thunderstorm
3:47 PM 80.6 °F 83.2 °F 68.0 °F 65% 29.87 in 15.0 mi Variable 2.3 mph - N/A Rain , Thunderstorm Light Thunderstorms and Rain
4:00 PM 77.0 °F - 69.8 °F 78% 29.87 in 6.0 mi North 3.5 mph - N/A Rain , Thunderstorm Light Thunderstorms and Rain
4:11 PM 69.8 °F - 68.0 °F 94% 29.89 in 4.0 mi West 8.1 mph - N/A Rain , Thunderstorm Thunderstorms and Rain
4:23 PM 68.0 °F - 64.4 °F 88% 29.92 in 2.0 mi South 18.4 mph 27.6 mph N/A Rain , Thunderstorm Heavy Thunderstorms and Rain
4:41 PM 66.2 °F - 60.8 °F 83% 29.94 in 4.0 mi ESE 8.1 mph 23.0 mph N/A Rain , Thunderstorm Light Thunderstorms and Rain
4:51 PM 68.0 °F - 60.8 °F 78% 29.91 in 6.0 mi East 10.4 mph 21.9 mph N/A Thunderstorm Mostly Cloudy
5:00 PM 69.8 °F - 60.8 °F 73% 29.89 in 15.0 mi East 9.2 mph - N/A Thunderstorm Thunderstorm
5:39 PM 73.4 °F - 60.8 °F 65% 29.89 in 15.0 mi ENE 8.1 mph - N/A   Mostly Cloudy
6:00 PM 73.4 °F - 60.8 °F 65% 29.88 in 15.0 mi East 4.6 mph - N/A   Mostly Cloudy
7:00 PM 71.6 °F - 62.6 °F 73% 29.88 in 15.0 mi SSE 6.9 mph - N/A   Overcast
8:00 PM 69.8 °F - 60.8 °F 73% 29.86 in 15.0 mi SE 8.1 mph - N/A   Mostly Cloudy
9:00 PM 68.0 °F - 60.8 °F 78% 29.85 in 15.0 mi SE 4.6 mph - N/A   Mostly Cloudy
10:00 PM 62.6 °F - 59.0 °F 88% 29.86 in 15.0 mi WSW 8.1 mph - N/A   Scattered Clouds
11:00 PM 59.0 °F - 59.0 °F 100% 29.86 in 15.0 mi WSW 4.6 mph - N/A   Scattered Clouds